Location: Gajan
(43.0218°N, 1.1244°E)
Time: 22:03:55
(UTC+00:00)

N. Korean satellite - Pass Details

Date: 04 October 2021
Orbit: 450 x 495 km, 97.3° (Epoch: 21 October)

Event Time Altitude Azimuth Distance (km) Brightness Sun altitude
Rises 04:01:39 0° 36° (NE) 2,562 11.0 -21.6°
Reaches altitude 10° 04:05:18 10° 75° (ENE) 1,684 10.5 -21.0°
Maximum altitude 04:06:14 11° 90° (E) 1,635 10.3 -20.8°
Drops below altitude 10° 04:07:10 10° 105° (ESE) 1,684 10.2 -20.6°
Sets 04:10:48 0° 144° (SE) 2,565 10.5 -20.0°
